This is the latest recevied weather packets stored in our database for station/object 9M4RBN-3. If no packets are shown the sender has not sent any weather packets the latest 10 day(s).
| Time | Temp. | Humidity | Pressure | Rain* | Wind** | Luminosity | Snow |
|---|---|---|---|---|---|---|---|
| 1778148405 | 26.67° C | 53% | 1011.5 hPa | - | - | - | - |
| 1778147505 | 26.11° C | 53% | 1011.1 hPa | - | - | - | - |
| 1778146605 | 25.56° C | 38% | 1010.9 hPa | - | - | - | - |
| 1778145705 | 26.67° C | 40% | 1011.1 hPa | - | - | - | - |
| 1778144805 | 26.67° C | 49% | 1010.9 hPa | - | - | - | - |
| 1778143905 | 26.67° C | 67% | 1010.9 hPa | - | - | - | - |
| 1778143005 | 25.56° C | 40% | 1011.3 hPa | - | - | - | - |
| 1778142105 | 26.67° C | 38% | 1011.2 hPa | - | - | - | - |
| 1778141205 | 27.22° C | 45% | 1011.7 hPa | - | - | - | - |
| 1778140305 | 27.22° C | 47% | 1012 hPa | - | - | - | - |
| 1778139405 | 27.22° C | 47% | 1011.9 hPa | - | - | - | - |
| 1778138505 | 27.22° C | 47% | 1012.1 hPa | - | - | - | - |
| 1778137605 | 27.22° C | 49% | 1012.3 hPa | - | - | - | - |
| 1778136705 | 26.67° C | 48% | 1012.4 hPa | - | - | - | - |
| 1778135805 | 26.67° C | 48% | 1012.7 hPa | - | - | - | - |
| 1778134904 | 26.67° C | 49% | 1012.9 hPa | - | - | - | - |
| 1778134005 | 26.67° C | 50% | 1013.3 hPa | - | - | - | - |
| 1778133104 | 26.11° C | 50% | 1013.3 hPa | - | - | - | - |
| 1778132204 | 26.11° C | 52% | 1013.5 hPa | - | - | - | - |
| 1778131304 | 26.11° C | 53% | 1013.8 hPa | - | - | - | - |
| 1778130404 | 26.11° C | 56% | 1014 hPa | - | - | - | - |
| 1778129504 | 26.11° C | 58% | 1014.2 hPa | - | - | - | - |
| 1778128604 | 25.56° C | 52% | 1014.5 hPa | - | - | - | - |
| 1778127704 | 26.67° C | 50% | 1014.5 hPa | - | - | - | - |
| 1778126804 | 26.67° C | 75% | 1014.7 hPa | - | - | - | - |
* Rain since midnight (hover to see other rain measurements)
** Current wind speed in m/s (hover to see current wind gust speed)